Flag for Canada Weather past 2 weeks in Yarmouth County, Nova Scotia, Canada

Now
63 °F

Clear.


Feels Like: 63 °F
Forecast: 57 / 71 °F
Wind: 17 mph from North

Location: Yarmouth

Current Time: Sep 1, 2015 at 5:42:58 AM

Latest Report: Sep 1, 2015 at 5:00 AM


Visibility: 15 mi

Pressure: 29.85 "Hg

Humidity: 77%

Dew point: 55 °F

Location of Yarmouth CountyLocation

Historic Weather in Yarmouth County — Graph

°F

Yarmouth County temperature yesterday

Maximum temperature yesterday: 72 °F (at 12:00 PM)
Minimum temperature yesterday: 59 °F (at 5:00 AM)
Average temperature yesterday: 65 °F

Past Weeks' High & Low Weather Summary

 TemperatureHumidityPressure
High82 °F (Aug 20, 3:00 PM)100% (Aug 17, 4:00 AM)30.21 "Hg (Aug 17, 4:00 AM)
Low57 °F (Aug 28, 6:00 AM)62% (Aug 24, 1:00 PM)29.78 "Hg (Aug 31, 8:00 PM)
Average68 °F94%30.03 "Hg
* Reported Aug 17 4:00 AM — Sep 1 4:00 AM, Yarmouth County, Weather by CustomWeather, © 2015

Note: Actual official high and low records may vary slightly from our data, if they occured in-between our weather recording intervals... More about our weather records

Advertising

Yarmouth County weather history for previous 24 hours

 ConditionsComfort  
Time TempWeatherWind HumidityBarometerVisibility
4:00 AM
Tue, Sep 1
63 °FPassing clouds.9 mph77%29.85 "Hg15 mi
3:00 AM61 °FClear.12 mph88%29.83 "Hg15 mi
2:00 AM61 °FClear.10 mph88%29.83 "Hg15 mi
1:00 AM64 °FPassing clouds.16 mph83%29.82 "Hg15 mi
12:00 AM64 °FClear.13 mph88%29.82 "Hg15 mi
11:00 PM
Mon, Aug 31
63 °FClear.12 mph94%29.81 "Hg12 mi
10:00 PM64 °FClear.15 mph94%29.81 "Hg12 mi
9:00 PM66 °FScattered clouds.15 mph88%29.80 "Hg12 mi
8:00 PM66 °FPassing clouds.14 mph88%29.78 "Hg10 mi
7:00 PM68 °FSunny.15 mph83%29.78 "Hg10 mi
6:00 PM68 °FSunny.17 mph88%29.79 "Hg10 mi
5:00 PM70 °FScattered clouds.14 mph83%29.81 "Hg10 mi
4:00 PM70 °FPassing clouds.16 mph88%29.81 "Hg12 mi
3:00 PM72 °FScattered clouds.13 mph83%29.83 "Hg10 mi
2:00 PM72 °FFog.9 mph88%29.86 "Hg3 mi
1:00 PM72 °FFog.9 mph83%29.89 "Hg3 mi
12:00 PM72 °FScattered clouds.5 mph83%29.90 "Hg12 mi
11:00 AM66 °FFog.8 mph100%29.91 "Hg3 mi
10:00 AM63 °FFog.6 mph100%29.92 "Hg0 mi
9:00 AM61 °FFog.8 mph100%29.93 "Hg0 mi
8:00 AM59 °FFog.2 mph100%29.93 "Hg0 mi
7:00 AM59 °FFog.3 mph100%29.95 "Hg0 mi
6:00 AM59 °FFog.6 mph100%29.95 "Hg0 mi
5:00 AM59 °FFog.6 mph100%29.96 "Hg0 mi
Weather by CustomWeather, © 2015

See weather overviewHow to use our weather pages